Location: La Comballaz
(46.3780°N, 7.0817°E)
Time: 19:49:25
(UTC+00:00)

N. Korean satellite - Pass Details

Date: 09 December 2021
Orbit: 446 x 492 km, 97.3° (Epoch: 18 January)

Event Time Altitude Azimuth Distance (km) Brightness Sun altitude
Rises 05:29:22 0° 2° (N) 2,462 10.0 -15.4°
Reaches altitude 10° 05:31:33 10° 352° (N) 1,584 8.9 -15.1°
Maximum altitude 05:34:32 30° 290° (WNW) 841 7.2 -14.6°
Drops below altitude 10° 05:37:31 10° 228° (SW) 1,574 8.9 -14.1°
Sets 05:39:41 0° 217° (SW) 2,445 9.9 -13.7°
